Вернуться в каталог

SL-6 DEB

АктивенHEO
NORAD 14131·DEBRIS·🇷🇺 Russia

Запущен Sep 11, 1981 с Plesetsk Cosmodrome

Loading…

Ближайшие Пролёты (ближайшие 24 часа)

TLE

СвежийSource: Space-Track

Эпоха: Sep 9, 2026, 01:12 UTC

1 14131U 81088M   26252.05028588  .00003815  00000-0  93680-2 0  9993
2 14131  63.0507 273.7183 3834984 344.6734  18.1572  7.16858887899091

Отслеживайте SL-6 DEB в реальном времени с AllMySat

Download on the App Store